| time (UTC) | temp C | wind direction | speed KPH | gust KPH | rain 1hr cm | rain 24hr cm | rain mn cm | humidity % | barometer mb |
| 20260510020048 | 16 | 295 | 0.0 | 3.2 | 0.00 | 0.00 | 0.00 | 52 | 1011.3 |
| 20260510015047 | 16 | 286 | 1.6 | 4.8 | 0.00 | 0.00 | 0.00 | 51 | 1011.2 |
| 20260510014047 | 16 | 229 | 0.0 | 3.2 | 0.00 | 0.00 | 0.00 | 51 | 1010.9 |
| 20260510013047 | 17 | 279 | 1.6 | 4.8 | 0.00 | 0.00 | 0.00 | 49 | 1010.9 |
| 20260510012046 | 17 | 236 | 0.0 | 3.2 | 0.00 | 0.00 | 0.00 | 45 | 1010.7 |
| 20260510011048 | 18 | 180 | 0.0 | 1.6 | 0.00 | 0.00 | 0.00 | 45 | 1010.4 |
| 20260510010050 | 18 | 288 | 1.6 | 3.2 | 0.00 | 0.00 | 0.00 | 44 | 1010.3 |
| 20260510005047 | 17 | 302 | 0.0 | 3.2 | 0.00 | 0.00 | 0.00 | 45 | 1010.1 |
| 20260510004048 | 17 | 180 | 0.0 | 3.2 | 0.00 | 0.00 | 0.00 | 45 | 1010.0 |
| 20260510003047 | 18 | 255 | 0.0 | 3.2 | 0.00 | 0.00 | 0.00 | 44 | 1009.7 |
| 20260510002048 | 18 | 249 | 1.6 | 3.2 | 0.00 | 0.00 | 0.00 | 44 | 1009.5 |
| 20260510001048 | 19 | 285 | 0.0 | 3.2 | 0.00 | 0.00 | 0.00 | 40 | 1009.3 |
| 20260510000047 | 20 | 287 | 0.0 | 6.4 | 0.00 | 0.00 | 0.00 | 39 | 1009.2 |
| 20260509235048 | 20 | 313 | 0.0 | 4.8 | 0.00 | 0.00 | 0.00 | 38 | 1009.2 |
| 20260509234048 | 21 | 308 | 1.6 | 8.0 | 0.00 | 0.00 | 0.00 | 37 | 1009.1 |
| 20260509233047 | 21 | 285 | 3.2 | 6.4 | 0.00 | 0.00 | 0.00 | 36 | 1009.1 |
| 20260509232050 | 22 | 305 | 1.6 | 6.4 | 0.00 | 0.00 | 0.00 | 43 | 1009.2 |
| 20260509231048 | 21 | 288 | 3.2 | 11.3 | 0.00 | 0.00 | 0.00 | 44 | 1009.1 |
| 20260509230047 | 21 | 246 | 3.2 | 11.3 | 0.00 | 0.00 | 0.00 | 45 | 1009.0 |
| 20260509225048 | 22 | 274 | 0.0 | 6.4 | 0.00 | 0.00 | 0.00 | 43 | 1008.9 |
| 20260509224047 | 22 | 220 | 3.2 | 9.7 | 0.00 | 0.00 | 0.00 | 43 | 1009.0 |
| 20260509223047 | 22 | 304 | 3.2 | 9.7 | 0.00 | 0.00 | 0.00 | 43 | 1009.0 |
| 20260509222047 | 22 | 242 | 4.8 | 14.5 | 0.00 | 0.00 | 0.00 | 43 | 1009.0 |
| 20260509221048 | 22 | 193 | 6.4 | 12.9 | 0.00 | 0.00 | 0.00 | 41 | 1008.9 |
| 20260509220047 | 22 | 248 | 4.8 | 11.3 | 0.00 | 0.00 | 0.00 | 33 | 1008.8 |
| 20260509215047 | 22 | 214 | 3.2 | 14.5 | 0.00 | 0.00 | 0.00 | 33 | 1008.8 |
| 20260509214048 | 22 | 241 | 4.8 | 16.1 | 0.00 | 0.00 | 0.00 | 33 | 1008.8 |
| 20260509213047 | 22 | 210 | 4.8 | 16.1 | 0.00 | 0.00 | 0.00 | 40 | 1008.7 |
| 20260509212049 | 22 | 215 | 6.4 | 16.1 | 0.00 | 0.00 | 0.00 | 37 | 1008.6 |
| 20260509211047 | 22 | 223 | 6.4 | 19.3 | 0.00 | 0.00 | 0.00 | 35 | 1008.4 |
| 20260509210049 | 22 | 221 | 8.0 | 17.7 | 0.00 | 0.00 | 0.00 | 34 | 1008.5 |
| 20260509205048 | 22 | 238 | 6.4 | 19.3 | 0.00 | 0.00 | 0.00 | 40 | 1008.4 |
| 20260509204047 | 22 | 187 | 12.9 | 20.9 | 0.00 | 0.00 | 0.00 | 41 | 1008.4 |
| 20260509203047 | 22 | 216 | 9.7 | 17.7 | 0.00 | 0.00 | 0.00 | 40 | 1008.3 |
| 20260509202047 | 23 | 193 | 4.8 | 16.1 | 0.00 | 0.00 | 0.00 | 37 | 1008.2 |
| 20260509201048 | 24 | 177 | 12.9 | 24.1 | 0.00 | 0.00 | 0.00 | 36 | 1008.1 |
| 20260509200047 | 23 | 188 | 12.9 | 25.7 | 0.00 | 0.00 | 0.00 | 40 | 1008.2 |
| 20260509195047 | 23 | 169 | 8.0 | 25.7 | 0.00 | 0.00 | 0.00 | 41 | 1008.3 |
| 20260509194047 | 22 | 177 | 8.0 | 20.9 | 0.00 | 0.00 | 0.00 | 40 | 1008.5 |
| 20260509193047 | 23 | 161 | 11.3 | 25.7 | 0.00 | 0.00 | 0.00 | 37 | 1008.6 |
| 20260509192047 | 24 | 183 | 12.9 | 30.6 | 0.00 | 0.00 | 0.00 | 37 | 1008.7 |
| 20260509191047 | 23 | 215 | 9.7 | 22.5 | 0.00 | 0.00 | 0.00 | 37 | 1008.8 |
| 20260509190047 | 24 | 200 | 6.4 | 22.5 | 0.00 | 0.00 | 0.00 | 36 | 1008.9 |
| 20260509185047 | 22 | 188 | 17.7 | 32.2 | 0.00 | 0.00 | 0.00 | 39 | 1009.0 |
| 20260509184048 | 22 | 244 | 8.0 | 24.1 | 0.00 | 0.00 | 0.00 | 36 | 1009.1 |
| 20260509183047 | 22 | 0.0 | 24.1 | 0.00 | 0.00 | 0.00 | 40 | 1009.1 | |
| 20260509182049 | 22 | 198 | 8.0 | 29.0 | 0.00 | 0.00 | 0.00 | 39 | 1009.3 |
| 20260509181048 | 21 | 147 | 11.3 | 20.9 | 0.00 | 0.00 | 0.00 | 41 | 1009.4 |
| 20260509180047 | 21 | 227 | 4.8 | 16.1 | 0.00 | 0.00 | 0.00 | 41 | 1009.5 |
| 20260509175047 | 21 | 186 | 12.9 | 22.5 | 0.00 | 0.00 | 0.00 | 44 | 1009.7 |
| 20260509174047 | 20 | 219 | 8.0 | 20.9 | 0.00 | 0.00 | 0.00 | 47 | 1009.9 |
| 20260509173047 | 20 | 179 | 11.3 | 22.5 | 0.00 | 0.00 | 0.00 | 49 | 1010.0 |
| 20260509172047 | 19 | 173 | 12.9 | 20.9 | 0.00 | 0.00 | 0.00 | 49 | 1009.9 |
| 20260509171047 | 19 | 165 | 8.0 | 20.9 | 0.00 | 0.00 | 0.00 | 50 | 1010.0 |
| 20260509170047 | 20 | 207 | 6.4 | 14.5 | 0.00 | 0.00 | 0.00 | 48 | 1010.2 |
| 20260509165047 | 20 | 177 | 8.0 | 14.5 | 0.00 | 0.00 | 0.00 | 48 | 1010.3 |
| 20260509164047 | 20 | 224 | 4.8 | 20.9 | 0.00 | 0.00 | 0.00 | 50 | 1010.3 |
| 20260509163047 | 20 | 196 | 4.8 | 12.9 | 0.00 | 0.00 | 0.00 | 47 | 1010.4 |
| 20260509162047 | 20 | 206 | 9.7 | 17.7 | 0.00 | 0.00 | 0.00 | 48 | 1010.3 |
| 20260509161048 | 18 | 193 | 6.4 | 20.9 | 0.00 | 0.00 | 0.00 | 52 | 1010.3 |
| 20260509160048 | 19 | 177 | 11.3 | 17.7 | 0.00 | 0.00 | 0.00 | 50 | 1010.3 |
| 20260509155048 | 18 | 173 | 8.0 | 17.7 | 0.00 | 0.00 | 0.00 | 51 | 1010.3 |
| 20260509154047 | 18 | 165 | 11.3 | 16.1 | 0.00 | 0.00 | 0.00 | 52 | 1010.4 |
| 20260509153048 | 18 | 219 | 6.4 | 19.3 | 0.00 | 0.00 | 0.00 | 50 | 1010.3 |
| 20260509152049 | 19 | 166 | 9.7 | 16.1 | 0.00 | 0.00 | 0.00 | 49 | 1010.3 |
| 20260509151048 | 18 | 192 | 9.7 | 16.1 | 0.00 | 0.00 | 0.00 | 49 | 1010.1 |
| 20260509150049 | 19 | 210 | 3.2 | 12.9 | 0.00 | 0.00 | 0.00 | 50 | 1010.3 |
| 20260509145047 | 19 | 189 | 6.4 | 16.1 | 0.00 | 0.00 | 0.00 | 51 | 1010.2 |
| 20260509144047 | -17 | 0.0 | 0.0 | 0.00 | 0.00 | 0.00 | 1010.3 | ||
| 20260509143050 | -17 | 0.0 | 0.0 | 0.00 | 0.00 | 0.00 | 1010.2 | ||
| 20260509142047 | -17 | 0.0 | 0.0 | 0.00 | 0.00 | 0.00 | 1010.2 | ||
| 20260509141047 | 17 | 0.0 | 8.0 | 0.00 | 0.00 | 0.00 | 57 | 1010.7 | |
| 20260509140047 | 16 | 191 | 8.0 | 17.7 | 0.00 | 0.00 | 0.00 | 56 | 1010.9 |
| 20260509135047 | 16 | 196 | 8.0 | 20.9 | 0.00 | 0.00 | 0.00 | 56 | 1011.1 |
| 20260509134048 | 16 | 181 | 6.4 | 12.9 | 0.00 | 0.00 | 0.00 | 55 | 1011.1 |
| 20260509133047 | 15 | 205 | 6.4 | 11.3 | 0.00 | 0.00 | 0.00 | 58 | 1011.4 |
| 20260509132048 | 15 | 192 | 8.0 | 16.1 | 0.00 | 0.00 | 0.00 | 58 | 1011.4 |
| 20260509131048 | 15 | 202 | 6.4 | 16.1 | 0.00 | 0.00 | 0.00 | 58 | 1011.4 |
| 20260509130047 | 14 | 188 | 8.0 | 20.9 | 0.00 | 0.00 | 0.00 | 58 | 1011.3 |
| 20260509125050 | 14 | 177 | 6.4 | 14.5 | 0.00 | 0.00 | 0.00 | 57 | 1011.3 |
| 20260509124047 | 14 | 175 | 9.7 | 17.7 | 0.00 | 0.00 | 0.00 | 58 | 1011.1 |
| 20260509123048 | 13 | 193 | 9.7 | 16.1 | 0.00 | 0.00 | 0.00 | 58 | 1011.2 |
| 20260509122047 | 13 | 191 | 6.4 | 12.9 | 0.00 | 0.00 | 0.00 | 58 | 1011.2 |
| 20260509121049 | 13 | 200 | 8.0 | 14.5 | 0.00 | 0.00 | 0.00 | 58 | 1011.4 |
| 20260509120047 | 13 | 203 | 6.4 | 9.7 | 0.00 | 0.00 | 0.00 | 59 | 1011.4 |
| 20260509115047 | 13 | 208 | 4.8 | 9.7 | 0.00 | 0.00 | 0.00 | 59 | 1011.5 |
| 20260509114047 | 13 | 202 | 3.2 | 8.0 | 0.00 | 0.00 | 0.00 | 58 | 1011.5 |
| 20260509113050 | 12 | 183 | 4.8 | 8.0 | 0.00 | 0.00 | 0.00 | 57 | 1011.3 |
| 20260509112047 | 12 | 236 | 1.6 | 6.4 | 0.00 | 0.00 | 0.00 | 58 | 1011.4 |
| 20260509111047 | 12 | 228 | 1.6 | 6.4 | 0.00 | 0.00 | 0.00 | 58 | 1011.3 |
| 20260509110048 | 12 | 206 | 3.2 | 16.1 | 0.00 | 0.00 | 0.00 | 57 | 1011.1 |
| 20260509105047 | 12 | 183 | 6.4 | 14.5 | 0.00 | 0.00 | 0.00 | 56 | 1011.1 |
| 20260509104047 | 12 | 191 | 6.4 | 11.3 | 0.00 | 0.00 | 0.00 | 56 | 1011.3 |
| 20260509103049 | 12 | 189 | 6.4 | 11.3 | 0.00 | 0.00 | 0.00 | 56 | 1011.2 |
| 20260509102048 | 12 | 184 | 4.8 | 12.9 | 0.00 | 0.00 | 0.00 | 56 | 1011.3 |
| 20260509101047 | 12 | 193 | 6.4 | 11.3 | 0.00 | 0.00 | 0.00 | 56 | 1011.3 |
| 20260509100048 | 12 | 200 | 3.2 | 16.1 | 0.00 | 0.00 | 0.00 | 55 | 1011.2 |
| 20260509095048 | 12 | 192 | 8.0 | 14.5 | 0.00 | 0.00 | 0.00 | 55 | 1011.4 |
| 20260509094048 | 12 | 181 | 8.0 | 16.1 | 0.00 | 0.00 | 0.00 | 54 | 1011.3 |
| 20260509093049 | 12 | 174 | 8.0 | 11.3 | 0.00 | 0.00 | 0.00 | 54 | 1011.4 |
| 20260509092047 | 12 | 176 | 6.4 | 11.3 | 0.00 | 0.00 | 0.00 | 54 | 1011.4 |
| 20260509091050 | 12 | 194 | 6.4 | 14.5 | 0.00 | 0.00 | 0.00 | 53 | 1011.6 |
| 20260509090047 | 12 | 185 | 8.0 | 16.1 | 0.00 | 0.00 | 0.00 | 53 | 1011.4 |
| 20260509085048 | 12 | 196 | 6.4 | 11.3 | 0.00 | 0.00 | 0.00 | 53 | 1011.6 |
| 20260509084047 | 12 | 187 | 6.4 | 11.3 | 0.00 | 0.00 | 0.00 | 53 | 1011.6 |
| 20260509083050 | 13 | 200 | 4.8 | 14.5 | 0.00 | 0.00 | 0.00 | 52 | 1011.6 |
| 20260509082047 | 13 | 181 | 4.8 | 11.3 | 0.00 | 0.00 | 0.00 | 52 | 1011.7 |
| 20260509081047 | 13 | 205 | 4.8 | 9.7 | 0.00 | 0.00 | 0.00 | 52 | 1011.7 |
| 20260509080048 | 13 | 182 | 6.4 | 11.3 | 0.00 | 0.00 | 0.00 | 52 | 1011.8 |
| 20260509075047 | 12 | 187 | 4.8 | 9.7 | 0.00 | 0.00 | 0.00 | 53 | 1011.9 |
| 20260509074049 | 12 | 185 | 6.4 | 11.3 | 0.00 | 0.00 | 0.00 | 53 | 1012.0 |
| 20260509073047 | 12 | 176 | 8.0 | 14.5 | 0.00 | 0.00 | 0.00 | 53 | 1012.1 |
| 20260509072047 | 12 | 173 | 6.4 | 11.3 | 0.00 | 0.00 | 0.00 | 53 | 1012.2 |
| 20260509071047 | 12 | 201 | 3.2 | 6.4 | 0.00 | 0.00 | 0.00 | 55 | 1012.2 |
| 20260509070048 | 12 | 207 | 1.6 | 6.4 | 0.00 | 0.00 | 0.00 | 55 | 1012.3 |
| 20260509065047 | 12 | 199 | 3.2 | 8.0 | 0.00 | 0.00 | 0.00 | 54 | 1012.2 |
| 20260509064048 | 12 | 191 | 3.2 | 8.0 | 0.00 | 0.00 | 0.00 | 54 | 1012.3 |
| 20260509063047 | 12 | 192 | 4.8 | 9.7 | 0.00 | 0.00 | 0.00 | 53 | 1012.5 |
| 20260509062049 | 12 | 193 | 4.8 | 9.7 | 0.00 | 0.00 | 0.00 | 52 | 1012.6 |
| 20260509061048 | 12 | 173 | 6.4 | 11.3 | 0.00 | 0.00 | 0.00 | 52 | 1012.6 |
| 20260509060048 | 12 | 186 | 4.8 | 8.0 | 0.00 | 0.00 | 0.00 | 53 | 1012.6 |
| 20260509055048 | 12 | 192 | 3.2 | 11.3 | 0.00 | 0.00 | 0.00 | 53 | 1012.8 |
| 20260509054048 | 12 | 187 | 8.0 | 12.9 | 0.00 | 0.00 | 0.00 | 52 | 1012.8 |
| 20260509053049 | 12 | 183 | 6.4 | 14.5 | 0.00 | 0.00 | 0.00 | 54 | 1013.0 |
| 20260509052047 | 12 | 183 | 8.0 | 14.5 | 0.00 | 0.00 | 0.00 | 53 | 1012.9 |
| 20260509051047 | 12 | 196 | 6.4 | 9.7 | 0.00 | 0.00 | 0.00 | 53 | 1012.9 |
| 20260509050047 | 13 | 200 | 4.8 | 11.3 | 0.00 | 0.00 | 0.00 | 51 | 1013.0 |
| 20260509045047 | 13 | 191 | 6.4 | 12.9 | 0.00 | 0.00 | 0.00 | 52 | 1012.9 |
| 20260509044047 | 13 | 187 | 6.4 | 16.1 | 0.00 | 0.00 | 0.00 | 52 | 1012.9 |
| 20260509043048 | 12 | 190 | 8.0 | 16.1 | 0.00 | 0.00 | 0.00 | 52 | 1012.8 |
| 20260509042048 | 13 | 205 | 6.4 | 14.5 | 0.00 | 0.00 | 0.00 | 52 | 1012.8 |
| 20260509041047 | 13 | 205 | 8.0 | 14.5 | 0.00 | 0.00 | 0.00 | 52 | 1012.7 |
| 20260509040048 | 13 | 203 | 8.0 | 12.9 | 0.00 | 0.00 | 0.00 | 52 | 1012.8 |
| 20260509035047 | 13 | 203 | 4.8 | 9.7 | 0.00 | 0.00 | 0.00 | 52 | 1012.9 |
| 20260509034048 | 13 | 198 | 4.8 | 11.3 | 0.00 | 0.00 | 0.00 | 51 | 1012.9 |
| 20260509033047 | 13 | 189 | 6.4 | 14.5 | 0.00 | 0.00 | 0.00 | 50 | 1012.8 |
| 20260509032050 | 13 | 226 | 6.4 | 12.9 | 0.00 | 0.00 | 0.00 | 50 | 1012.8 |
| 20260509031050 | 13 | 197 | 6.4 | 14.5 | 0.00 | 0.00 | 0.00 | 50 | 1012.8 |
| 20260509030047 | 14 | 201 | 6.4 | 16.1 | 0.00 | 0.00 | 0.00 | 49 | 1012.9 |
| 20260509025047 | 14 | 206 | 8.0 | 12.9 | 0.00 | 0.00 | 0.00 | 49 | 1013.0 |
| 20260509024048 | 14 | 216 | 4.8 | 11.3 | 0.00 | 0.00 | 0.00 | 50 | 1013.0 |
| 20260509023047 | 14 | 195 | 6.4 | 11.3 | 0.00 | 0.00 | 0.00 | 50 | 1013.1 |
| 20260509022047 | 14 | 238 | 3.2 | 11.3 | 0.00 | 0.00 | 0.00 | 51 | 1013.2 |
| 20260509021048 | 14 | 225 | 3.2 | 12.9 | 0.00 | 0.00 | 0.00 | 50 | 1012.9 |